{"data":{"norad_id":67959,"intl_designator":"2026-037AD","name":"STARLINK-36834","alt_names":[],"object_type":"PAYLOAD","status":"ACTIVE","operator":null,"country":"US","launch_date":"2026-02-24","launch_site_code":"AFETR","launch_vehicle":null,"mission":null,"orbit_class":"UNKNOWN","rcs_meters":null,"size_class":null,"mass_kg":null,"dimensions":null,"purposes":["comms"],"wikipedia_slug":null,"has_3d_model":false,"image_url":null,"decayed_at":null,"tle_current":{"epoch":"2026-05-25T04:37:59.455200Z","epoch_age_seconds":54420,"freshness":"FRESH","line1":"1 67959U 26037AD  26145.19304925  .00017942  00000+0  65956-3 0  9991","line2":"2 67959  43.0013 118.4340 0001794 283.1698  76.8953 15.27598751 15046","mean_motion":15.27598751,"eccentricity":0.0001794,"inclination_deg":43.0013,"raan_deg":118.434,"arg_perigee_deg":283.1698,"mean_anomaly_deg":76.8953,"bstar":0.00065956,"rev_number":1504,"period_min":94.265591606261,"perigee_km":481.76206266143,"apogee_km":484.22383608727,"semimajor_km":6861.1299493743,"source":"CELESTRAK","updated_at":"2026-05-25T13:38:21.772171Z"}}}